| time (UTC) | temp C | wind direction | speed KPH | gust KPH | rain 1hr cm | rain 24hr cm | rain mn cm | humidity % | barometer mb |
| 20260505124543 | 20 | 193 | 22.5 | 30.6 | 0.00 | 0.00 | 0.00 | 87 | 1004.9 |
| 20260505123051 | 20 | 204 | 24.1 | 37.0 | 0.00 | 0.00 | 0.00 | 87 | 1004.9 |
| 20260505121541 | 20 | 212 | 25.7 | 35.4 | 0.00 | 0.00 | 0.00 | 87 | 1004.7 |
| 20260505114539 | 20 | 205 | 17.7 | 29.0 | 0.00 | 0.00 | 0.00 | 87 | 1004.7 |
| 20260505113038 | 20 | 217 | 22.5 | 35.4 | 0.00 | 0.00 | 0.00 | 86 | 1004.8 |
| 20260505111538 | 20 | 221 | 19.3 | 35.4 | 0.00 | 0.00 | 0.00 | 86 | 1004.8 |
| 20260505101533 | 20 | 220 | 16.1 | 33.8 | 0.00 | 0.00 | 0.00 | 84 | 1004.7 |
| 20260505100035 | 20 | 206 | 20.9 | 32.2 | 0.00 | 0.00 | 0.00 | 84 | 1004.9 |
| 20260505094533 | 20 | 198 | 22.5 | 35.4 | 0.00 | 0.00 | 0.00 | 84 | 1004.8 |
| 20260505093032 | 20 | 202 | 20.9 | 38.6 | 0.00 | 0.00 | 0.00 | 84 | 1004.7 |
| 20260505091530 | 20 | 202 | 22.5 | 41.8 | 0.00 | 0.00 | 0.00 | 84 | 1004.8 |
| 20260505090029 | 20 | 188 | 22.5 | 33.8 | 0.00 | 0.00 | 0.00 | 84 | 1004.7 |
| 20260505084531 | 20 | 188 | 24.1 | 35.4 | 0.00 | 0.00 | 0.00 | 84 | 1004.8 |
| 20260505083026 | 20 | 201 | 24.1 | 35.4 | 0.00 | 0.00 | 0.00 | 84 | 1005.1 |
| 20260505081524 | 20 | 221 | 24.1 | 37.0 | 0.00 | 0.00 | 0.00 | 84 | 1005.2 |
| 20260505080021 | 20 | 207 | 25.7 | 40.2 | 0.00 | 0.00 | 0.00 | 83 | 1005.3 |
| 20260505074519 | 20 | 201 | 22.5 | 37.0 | 0.00 | 0.00 | 0.00 | 83 | 1005.4 |
| 20260505073016 | 20 | 221 | 22.5 | 37.0 | 0.00 | 0.00 | 0.00 | 82 | 1005.5 |
| 20260505071513 | 20 | 202 | 32.2 | 41.8 | 0.00 | 0.00 | 0.00 | 81 | 1005.5 |
| 20260505070009 | 20 | 205 | 25.7 | 40.2 | 0.00 | 0.00 | 0.00 | 81 | 1005.9 |
| 20260505064509 | 21 | 199 | 25.7 | 40.2 | 0.00 | 0.00 | 0.00 | 80 | 1006.1 |
| 20260505063007 | 21 | 195 | 24.1 | 37.0 | 0.00 | 0.00 | 0.00 | 80 | 1006.1 |
| 20260505061502 | 21 | 212 | 24.1 | 35.4 | 0.00 | 0.00 | 0.00 | 79 | 1006.2 |
| 20260505060104 | 21 | 194 | 22.5 | 32.2 | 0.00 | 0.00 | 0.00 | 79 | 1006.2 |
| 20260505054602 | 21 | 198 | 20.9 | 35.4 | 0.00 | 0.00 | 0.00 | 78 | 1006.4 |
| 20260505053055 | 21 | 188 | 19.3 | 29.0 | 0.00 | 0.00 | 0.00 | 77 | 1006.4 |
| 20260505051552 | 21 | 183 | 16.1 | 29.0 | 0.00 | 0.00 | 0.00 | 76 | 1006.5 |
| 20260505041553 | 21 | 196 | 17.7 | 30.6 | 0.00 | 0.00 | 0.00 | 74 | 1006.7 |
| 20260505040056 | 21 | 195 | 17.7 | 24.1 | 0.00 | 0.00 | 0.00 | 73 | 1006.9 |
| 20260505034605 | 21 | 195 | 14.5 | 24.1 | 0.00 | 0.00 | 0.00 | 72 | 1006.9 |
| 20260505033046 | 21 | 184 | 14.5 | 22.5 | 0.00 | 0.00 | 0.00 | 71 | 1007.0 |
| 20260505031546 | 22 | 210 | 14.5 | 24.1 | 0.00 | 0.00 | 0.00 | 70 | 1007.0 |
| 20260505030049 | 22 | 188 | 17.7 | 33.8 | 0.00 | 0.00 | 0.00 | 69 | 1007.0 |
| 20260505024547 | 22 | 202 | 16.1 | 30.6 | 0.00 | 0.00 | 0.00 | 69 | 1006.7 |
| 20260505023046 | 22 | 190 | 17.7 | 27.4 | 0.00 | 0.00 | 0.00 | 68 | 1006.7 |
| 20260505021544 | 22 | 196 | 17.7 | 25.7 | 0.00 | 0.00 | 0.00 | 68 | 1006.8 |
| 20260505020054 | 22 | 190 | 17.7 | 25.7 | 0.00 | 0.00 | 0.00 | 67 | 1006.8 |
| 20260505014543 | 22 | 211 | 16.1 | 24.1 | 0.00 | 0.00 | 0.00 | 66 | 1006.7 |
| 20260505013042 | 22 | 202 | 17.7 | 24.1 | 0.00 | 0.00 | 0.00 | 65 | 1006.6 |
| 20260505011540 | 23 | 198 | 19.3 | 27.4 | 0.00 | 0.00 | 0.00 | 64 | 1006.7 |
| 20260505010052 | 23 | 190 | 17.7 | 35.4 | 0.00 | 0.00 | 0.00 | 63 | 1006.6 |
| 20260505004557 | 23 | 188 | 17.7 | 27.4 | 0.00 | 0.00 | 0.00 | 61 | 1006.6 |
| 20260505003038 | 24 | 188 | 17.7 | 29.0 | 0.00 | 0.00 | 0.00 | 60 | 1006.4 |
| 20260505001538 | 24 | 204 | 17.7 | 32.2 | 0.00 | 0.00 | 0.00 | 59 | 1006.7 |
| 20260505000037 | 25 | 194 | 19.3 | 33.8 | 0.00 | 0.00 | 0.00 | 57 | 1006.7 |
| 20260504234535 | 25 | 175 | 19.3 | 32.2 | 0.00 | 0.00 | 0.00 | 56 | 1007.0 |
| 20260504233032 | 26 | 188 | 25.7 | 37.0 | 0.00 | 0.00 | 0.00 | 54 | 1006.9 |
| 20260504231530 | 26 | 182 | 20.9 | 37.0 | 0.00 | 0.00 | 0.00 | 54 | 1007.3 |
| 20260504230029 | 26 | 186 | 24.1 | 38.6 | 0.00 | 0.00 | 0.00 | 53 | 1007.5 |
| 20260504224533 | 26 | 198 | 25.7 | 40.2 | 0.00 | 0.00 | 0.00 | 52 | 1007.5 |
| 20260504223027 | 27 | 173 | 20.9 | 35.4 | 0.00 | 0.00 | 0.00 | 51 | 1007.7 |
| 20260504221535 | 27 | 188 | 27.4 | 46.7 | 0.00 | 0.00 | 0.00 | 50 | 1008.0 |
| 20260504220023 | 26 | 200 | 22.5 | 40.2 | 0.00 | 0.00 | 0.00 | 51 | 1008.0 |
| 20260504214521 | 27 | 159 | 24.1 | 38.6 | 0.00 | 0.00 | 0.00 | 50 | 1008.1 |
| 20260504213032 | 27 | 202 | 22.5 | 45.1 | 0.00 | 0.00 | 0.00 | 50 | 1008.5 |
| 20260504211517 | 27 | 186 | 25.7 | 37.0 | 0.00 | 0.00 | 0.00 | 50 | 1008.5 |
| 20260504210017 | 27 | 205 | 27.4 | 43.5 | 0.00 | 0.00 | 0.00 | 50 | 1009.0 |
| 20260504204513 | 27 | 188 | 24.1 | 45.1 | 0.00 | 0.00 | 0.00 | 49 | 1009.2 |
| 20260504203008 | 27 | 177 | 17.7 | 35.4 | 0.00 | 0.00 | 0.00 | 49 | 1009.7 |
| 20260504201506 | 27 | 185 | 19.3 | 40.2 | 0.00 | 0.00 | 0.00 | 51 | 1009.9 |
| 20260504200006 | 27 | 163 | 20.9 | 35.4 | 0.00 | 0.00 | 0.00 | 50 | 1010.3 |
| 20260504194605 | 26 | 169 | 20.9 | 35.4 | 0.00 | 0.00 | 0.00 | 51 | 1010.5 |
| 20260504193057 | 26 | 184 | 19.3 | 35.4 | 0.00 | 0.00 | 0.00 | 51 | 1010.8 |
| 20260504191615 | 26 | 173 | 22.5 | 35.4 | 0.00 | 0.00 | 0.00 | 52 | 1010.9 |
| 20260504190053 | 26 | 185 | 17.7 | 33.8 | 0.00 | 0.00 | 0.00 | 52 | 1011.2 |
| 20260504184600 | 26 | 175 | 20.9 | 30.6 | 0.00 | 0.00 | 0.00 | 52 | 1011.4 |
| 20260504183048 | 25 | 174 | 20.9 | 38.6 | 0.00 | 0.00 | 0.00 | 52 | 1011.7 |
| 20260504181546 | 25 | 185 | 19.3 | 38.6 | 0.00 | 0.00 | 0.00 | 52 | 1011.9 |
| 20260504180043 | 25 | 173 | 19.3 | 32.2 | 0.00 | 0.00 | 0.00 | 54 | 1012.1 |
| 20260504174542 | 25 | 215 | 25.7 | 40.2 | 0.00 | 0.00 | 0.00 | 52 | 1012.2 |
| 20260504173038 | 24 | 225 | 22.5 | 33.8 | 0.00 | 0.00 | 0.00 | 54 | 1012.4 |
| 20260504171538 | 23 | 209 | 20.9 | 32.2 | 0.00 | 0.00 | 0.00 | 54 | 1012.9 |